sat.trackr.live / text

‹ back to catalog

STARLINK-5502

NORAD 55644 · 2023-021S

PAYLOAD ACTIVE UNKNOWN

§ Identity

Operator
Country
US
Launch date
2023-02-17
Launch site
AFWTR
Launch vehicle
Mass (kg)
RCS (m²)

Purposes: comms

External: N2YO · Heavens-Above · Gunter

§ Orbital elements

Epoch: 2026-09-20T22:06:07.955424Z

Period
96.11 min
Inclination
70.0001°
Eccentricity
0.0003018
Mean motion
14.98331839 rev/d
Perigee alt
570.0 km
Apogee alt
574.1 km
Semi-major
6,950.2 km
B*
2.4122e-5
RAAN
52.2708°
Arg perigee
268.5210°
Mean anomaly
91.5603°
Rev number
19,803

§ Raw data

STARLINK-55021 55644U 23021S   26263.92092541  .00000195  00000+0  24122-4 0  99922 55644  70.0001  52.2708 0003018 268.5210  91.5603 14.98331839198038

JSON: /api/v1/satellites/55644 · /tle

For live sub-satellite position, see the globe view (requires WebGL).

§ Visibility from observer

Set your observer location to see the next 7 days of passes ≥ 10°. The values pass through the URL so the page stays shareable.

No JS? Fill the form by hand. The geolocation button needs JavaScript.